Hourly Data Report for January 31, 2021

STE-ANNE-DE-BELLEVUE 1
QUEBEC
Current Station Operator: ECCC - MSC

45°25'38.000" N
73°55'45.000" W
39.00 m
702FHL8
71377
WVQ

Download Data

Hourly Data (January 2021)
Hourly Data Report for January 31, 2021
TIME
LST
Temp Definition
°C
Dew Point Definition
°C
Rel Hum Definition
%
Precip. Amount Definition
mm

Wind Dir Definition
10's deg

Wind Spd Definition
km/h
Visibility Definition
km
Stn Press Definition
kPa
Hmdx Definition


Wind Chill Definition


Weather Definition


00:00 -20.1 -21.6 88 0.0 1 2   102.39   -22 LegendNANA
01:00 -22.1 -23.7 87 0.0 36 6   102.40   -27 LegendNANA
02:00 -21.2 -23.3 83 0.0 36 5   102.48   -26 LegendNANA
03:00 -19.7 -21.6 85 0.0 34 5   102.51   -24 LegendNANA
04:00 -20.1 -21.9 85 1.0 1 3   102.53   -23 LegendNANA
05:00 -21.7 -23.8 83 0.0 1 5   102.52   -26 LegendNANA
06:00 -22.9 -25.1 82 0.0 36 2   102.54   -25 LegendNANA
07:00 -23.6 -25.9 82 0.0 1 3   102.54   -26 LegendNANA
08:00 -21.3 -23.4 83 0.0 1 4   102.55   -25 LegendNANA
09:00 -19.3 -21.7 81 0.3 3 6   102.55   -24 LegendNANA
10:00 -17.0 -20.1 77 0.0 4 7   102.57   -22 LegendNANA
11:00 -15.9 -21.1 64 0.0 1 4   102.55   -19 LegendNANA
12:00 -14.4 -20.3 61 0.0 4 5   102.47   -18 LegendNANA
13:00 -12.1 -17.9 62 0.0 18 4   102.40   -15 LegendNANA
14:00 -13.0 -19.0 61 0.0 35 3   102.31   -15 LegendNANA
15:00 -12.7 -20.0 55 0.0 7 5   102.29   -16 LegendNANA
16:00 -12.6 -19.7 55 0.0 6 9   102.26   -18 LegendNANA
17:00 -13.4 -19.3 61 0.0 6 5   102.25   -17 LegendNANA
18:00 -16.5 -21.5 65 0.0 5 3   102.29   -19 LegendNANA
19:00 -18.3 -21.4 76 0.0 2 5   102.30   -22 LegendNANA
20:00 -17.3 -21.1 73 0.3 2 9   102.27   -24 LegendNANA
21:00 -18.8 -22.0 76 0.5 4 3   102.27   -21 LegendNANA
22:00 -18.1 -20.6 81 0.0 3 6   102.24   -23 LegendNANA
23:00 -18.9 -20.7 86 0.0 3 5   102.21   -23 LegendNANA

Notes on Data Quality.

Legend

  • E = Estimated
  • M = Missing
  • NA = Not Available*
  • [empty] = Indicates an unobserved value
Date modified: